Location: Newark
(45.2500°N, 7.5833°E)
Time: 04:57:31
(UTC+00:00)

Tiros 1 despin weight - All Passes

Search period start: 26 January 2020 00:00
Search period end: 05 February 2020 00:00
Orbit: 594 x 642 km, 48.2° (Epoch: 25 January)

Date Brightness Start Highest point End Pass type
(mag) Time Alt. Az. Time Alt. Az. Time Alt. Az.
26 Jan - 09:56:46 10° SSW 10:00:45 32° SE 10:04:49 10° E daylight
26 Jan - 11:37:31 10° WSW 11:42:03 83° NNW 11:46:41 10° ENE daylight
26 Jan - 13:19:23 10° WNW 13:23:54 59° N 13:28:30 10° E daylight
26 Jan - 15:01:04 10° WNW 15:05:42 84° SSW 15:10:22 10° ESE daylight
26 Jan - 16:43:04 10° W 16:46:53 25° SW 16:50:43 10° SSE daylight
27 Jan - 08:34:20 10° SSE 08:36:20 13° SE 08:38:20 10° ESE daylight
27 Jan - 10:12:45 10° SW 10:17:08 53° SSE 10:21:35 10° ENE daylight
27 Jan - 11:54:10 10° W 11:58:41 66° N 12:03:17 10° ENE daylight
27 Jan - 13:36:01 10° WNW 13:40:36 65° N 13:45:14 10° E daylight
27 Jan - 15:17:40 10° WNW 15:22:12 56° SSW 15:26:46 10° SE daylight
27 Jan - 17:00:36 10° WSW 17:03:05 14° SW 17:05:34 10° SSW visible
28 Jan - 08:48:57 10° SSW 08:52:29 23° SE 08:56:05 10° E daylight
28 Jan - 10:29:07 10° WSW 10:33:37 82° SSE 10:38:12 10° ENE daylight
28 Jan - 12:10:53 10° W 12:15:23 59° N 12:19:57 10° ENE daylight
28 Jan - 13:52:37 10° WNW 13:57:14 82° NNE 14:01:54 10° ESE daylight
28 Jan - 15:34:24 10° W 15:38:35 34° SW 15:42:48 10° SSE daylight
29 Jan - 09:04:37 10° SW 09:08:47 40° SE 09:13:02 10° ENE daylight
29 Jan - 10:45:41 10° W 10:50:12 74° NNW 10:54:48 10° ENE daylight
29 Jan - 12:27:34 10° WNW 12:32:05 61° N 12:36:40 10° E daylight
29 Jan - 14:09:13 10° WNW 14:13:48 72° SSW 14:18:26 10° ESE daylight
29 Jan - 15:51:29 10° W 15:54:51 20° SW 15:58:15 10° S daylight
30 Jan - 07:41:27 10° S 07:44:17 17° SE 07:47:08 10° E daylight
30 Jan - 09:20:47 10° SW 09:25:12 65° SSE 09:29:43 10° ENE daylight
30 Jan - 11:02:23 10° W 11:06:52 62° N 11:11:25 10° ENE daylight
30 Jan - 12:44:11 10° WNW 12:48:45 71° NNE 12:53:22 10° E daylight
30 Jan - 14:25:51 10° WNW 14:30:15 46° SSW 14:34:42 10° SE daylight
30 Jan - 16:10:00 10° WSW 16:11:00 11° SW 16:12:00 10° SW daylight
31 Jan - 07:56:39 10° SSW 08:00:29 29° SE 08:04:24 10° E daylight
31 Jan - 09:37:15 10° WSW 09:41:44 87° NNW 09:46:18 10° ENE daylight
31 Jan - 11:19:05 10° W 11:23:33 59° N 11:28:06 10° E daylight
31 Jan - 13:00:46 10° WNW 13:05:22 88° SSW 13:10:01 10° ESE daylight
31 Jan - 14:42:41 10° W 14:46:35 27° SW 14:50:30 10° SSE daylight
01 Feb - 06:34:44 10° SSE 06:36:07 11° SE 06:37:28 10° ESE daylight
01 Feb - 08:12:33 10° SW 08:16:50 49° SSE 08:21:12 10° ENE daylight
01 Feb - 09:53:53 10° W 09:58:21 68° NNW 10:02:54 10° ENE daylight
01 Feb - 11:35:45 10° WNW 11:40:15 64° N 11:44:49 10° E daylight
01 Feb - 13:17:22 10° WNW 13:21:53 60° SSW 13:26:26 10° SE daylight
01 Feb - 15:00:04 10° W 15:02:48 16° SW 15:05:32 10° S daylight
02 Feb - 06:48:54 10° S 06:52:15 21° SE 06:55:37 10° E daylight
02 Feb - 08:28:52 10° WSW 08:33:19 77° SSE 08:37:50 10° ENE daylight
02 Feb - 10:10:35 10° W 10:15:02 59° N 10:19:33 10° ENE daylight
02 Feb - 11:52:20 10° WNW 11:56:54 78° NNE 12:01:30 10° ESE daylight
02 Feb - 13:34:04 10° W 13:38:17 37° SW 13:42:32 10° SSE daylight
03 Feb - 07:04:27 10° SSW 07:08:31 36° SE 07:12:38 10° E daylight
03 Feb - 08:45:25 10° WSW 08:49:52 77° NNW 08:54:25 10° ENE daylight
03 Feb - 10:27:16 10° WNW 10:31:44 59° N 10:36:16 10° E daylight
03 Feb - 12:08:55 10° WNW 12:13:28 76° SSW 12:18:04 10° ESE daylight
03 Feb - 13:51:04 10° W 13:54:34 22° SW 13:58:05 10° S daylight
04 Feb - 05:41:33 10° S 05:44:03 15° SE 05:46:32 10° E visible
04 Feb - 07:20:33 10° SW 07:24:55 60° SSE 07:29:21 10° ENE daylight
04 Feb - 09:02:06 10° W 09:06:32 63° N 09:11:02 10° ENE daylight
04 Feb - 10:43:55 10° WNW 10:48:25 68° NNE 10:52:59 10° E daylight
04 Feb - 12:25:33 10° WNW 12:29:56 49° SSW 12:34:22 10° SE daylight
04 Feb - 14:09:06 10° WSW 14:10:44 12° SW 14:12:21 10° SSW daylight
